Wind_Speed
6 5 5 5 6 8 11 7 6 7 9 10 9 9 10 9 9 9 10 10 9 10 9 8 8 8 8 7 7 8 8 9 9 10 11 11 12 12 12 13 12 12 11 11 10 9 8 8 7
5 5 4 4 7 12 9 8 11 11 11 11 11 11 12 11 11 11 11 10 10 10 9 9 8 8 8 7 7 7 8 8 9 10 10 11 12 12 13 13 13 13 13 12 12 11 9 8 7
5 4 4 4 8 10 9 11 11 12 13 12 13 13 12 12 12 12 11 11 10 10 9 9 8 8 7 7 7 7 8 9 10 10 11 12 12 13 14 14 14 14 14 14 13 12 11 10 9
7 5 3 4 8 7 11 12 9 9 12 13 13 15 13 13 13 13 12 12 11 10 9 9 9 9 8 8 9 10 10 11 12 12 13 13 14 14 15 15 15 16 16 16 15 14 14 13 12
9 6 2 7 8 7 13 15 10 9 12 13 15 16 14 14 14 14 13 13 12 11 11 11 11 11 11 11 11 12 13 14 15 16 16 16 16 17 17 17 17 18 18 18 17 17 16 16 16
12 9 4 3 6 10 14 16 10 11 11 13 14 16 16 14 13 14 14 14 14 13 13 12 12 13 13 14 15 16 16 17 19 19 20 20 20 20 20 20 20 20 20 20 19 19 19 18 18
14 13 8 4 6 12 20 20 15 14 15 14 15 19 17 13 13 15 16 16 15 15 15 15 15 15 16 17 18 19 20 21 22 23 24 24 24 24 24 23 23 23 23 22 22 21 21 21 21
16 15 10 4 4 12 22 21 18 16 18 18 18 21 17 15 15 16 16 17 17 17 17 18 18 19 20 21 21 22 23 24 24 25 26 26 26 26 26 26 27 26 26 25 24 24 23 23 22
18 16 11 4 6 13 23 23 18 17 20 21 21 20 19 18 18 18 18 19 20 20 20 20 21 22 23 24 24 24 25 25 26 27 27 27 28 29 29 29 29 29 29 28 27 26 26 25 25
19 17 13 11 17 22 24 24 20 17 21 22 21 21 22 21 20 20 21 21 21 23 23 23 23 24 25 25 26 26 26 27 28 28 28 29 30 30 31 31 31 31 31 30 30 29 28 28 28
21 19 17 19 22 25 25 22 21 21 27 26 24 23 23 23 23 23 23 23 24 25 25 26 26 26 27 27 27 28 29 29 30 31 31 32 32 32 33 32 32 32 33 33 33 32 31 31 30
22 21 21 23 24 24 23 23 23 25 26 26 25 26 26 26 26 27 27 26 26 27 29 30 29 29 30 30 31 32 32 32 33 34 34 34 34 35 35 34 34 33 33 35 35 35 33 33 32
21 21 22 23 24 24 23 23 23 26 24 24 25 26 27 28 29 29 29 30 30 30 31 32 31 31 32 33 35 35 36 35 36 36 37 38 37 36 36 35 36 36 35 36 37 37 36 34 34
19 19 20 20 21 22 21 21 23 25 23 23 24 26 27 29 30 30 31 31 32 32 33 34 34 34 35 36 37 38 39 39 39 40 40 39 38 38 37 35 36 37 37 38 37 39 38 36 35
14 14 15 17 18 19 18 19 22 23 21 21 22 24 25 27 28 30 31 32 32 33 34 36 36 37 37 39 40 41 41 42 42 42 42 41 40 39 38 37 36 36 37 39 39 38 38 36 35
7 8 11 16 16 14 14 18 20 21 19 20 21 22 23 24 26 27 29 30 31 33 34 36 37 38 39 40 42 44 43 44 44 44 43 42 42 40 39 37 37 37 36 37 38 39 38 37 37
6 12 17 21 15 9 13 19 21 22 22 22 21 21 22 22 23 25 26 28 30 32 34 36 38 39 40 42 43 44 45 45 44 43 42 41 41 40 39 39 38 38 36 36 37 37 38 38 38
12 16 17 16 11 10 15 21 22 22 22 22 21 20 21 22 23 24 26 28 30 32 34 36 38 40 41 42 43 44 44 44 43 42 42 41 41 41 41 40 40 39 37 36 36 36 36 36 37
8 10 11 11 11 14 18 22 21 19 19 19 19 20 21 22 23 25 26 28 30 33 35 36 38 40 42 43 43 44 43 43 44 43 43 42 42 42 42 41 40 40 38 38 37 36 35 35 35
9 12 14 17 17 16 18 18 15 14 14 16 17 18 19 20 22 25 27 29 31 33 35 36 37 39 41 42 42 43 43 44 45 45 44 43 43 43 43 42 42 42 41 39 36 36 36 35 35
11 14 15 15 16 14 14 15 14 11 11 13 16 18 19 21 23 25 26 28 30 32 33 35 36 38 40 41 42 42 43 43 44 44 44 43 43 43 44 44 43 43 42 41 39 37 36 35 35
12 13 13 13 14 15 16 19 17 13 12 13 15 18 20 22 23 25 27 28 30 32 33 35 36 38 39 41 42 43 43 44 44 44 44 43 43 43 43 44 44 43 43 42 40 39 38 36 35
10 11 12 14 16 20 21 21 15 11 14 15 18 21 22 23 24 25 27 28 30 32 34 35 36 38 39 40 42 43 44 44 44 44 44 44 44 44 44 44 44 43 43 41 40 39 38 38 37
9 10 13 18 19 19 17 14 13 13 19 20 22 23 23 24 25 26 28 30 31 33 35 36 37 38 39 40 41 42 43 43 43 44 44 44 44 44 43 42 42 42 42 41 41 40 40 39 38
7 10 16 21 21 18 14 9 8 18 22 24 24 25 25 26 27 28 30 31 33 35 36 37 38 39 40 41 42 42 43 43 42 42 42 43 43 43 43 42 41 41 41 41 41 41 41 42 41
7 9 14 17 20 20 15 9 12 19 21 22 23 24 25 27 29 30 32 34 35 36 37 38 39 39 40 41 41 42 42 42 42 43 43 43 43 43 43 44 43 42 42 42 42 42 42 43 44
8 8 11 12 12 14 16 16 17 19 20 21 23 24 26 28 30 32 34 36 37 38 39 40 41 41 41 41 41 41 42 42 42 43 43 44 44 44 44 45 45 44 44 44 44 44 43 44 45
10 9 8 6 8 8 13 18 20 21 22 22 24 26 28 30 32 34 36 37 38 39 40 41 42 42 41 41 41 41 42 42 42 42 42 43 43 45 46 47 48 48 49 48 48 48 47 47 46
10 10 10 8 7 6 10 20 21 22 23 24 25 28 29 31 32 34 36 38 39 41 41 42 43 42 42 42 41 41 42 42 42 42 42 43 44 46 47 48 50 51 52 53 52 52 51 51 50
9 10 10 9 9 8 9 21 23 23 23 25 27 28 30 31 33 35 37 39 41 42 43 43 44 43 43 43 42 42 42 42 42 43 43 44 45 46 47 49 51 53 55 55 56 55 55 55 55
Wind_Direction
29 37 42 47 39 33 47 30 325 320 315 326 328 323 307 313 310 304 300 303 306 304 305 305 304 306 309 313 316 319 320 319 319 321 324 326 326 327 327 328 330 332 336 341 346 350 354 357 357
3 11 22 22 15 25 18 343 317 322 320 323 320 313 311 318 311 310 305 304 304 307 308 306 303 305 309 312 315 318 318 317 316 316 317 318 319 319 320 320 321 322 324 327 330 332 334 336 339
336 339 3 21 31 12 334 312 317 330 320 320 317 309 315 314 312 309 307 306 305 306 309 307 306 305 307 311 315 317 316 315 314 314 314 315 315 314 313 313 312 313 315 316 317 317 316 316 316
312 319 357 36 39 340 308 300 313 326 313 315 310 304 310 309 307 304 304 304 303 305 307 307 308 307 309 312 314 313 312 311 311 311 311 312 311 311 309 308 306 305 306 306 306 306 304 302 300
300 298 310 30 7 303 299 297 315 309 301 303 302 303 303 303 301 302 303 303 301 300 303 306 308 310 311 311 311 311 310 310 309 308 308 307 306 304 303 302 301 300 300 299 297 296 295 293 290
292 284 274 35 312 294 291 291 299 286 288 294 296 296 296 295 299 300 300 300 301 299 301 306 309 311 312 312 311 309 309 309 308 307 306 305 304 302 299 298 297 296 295 294 292 289 286 285 284
288 282 267 211 250 287 284 286 290 286 279 281 289 288 288 288 296 299 300 299 299 298 301 305 307 308 308 308 308 306 307 307 306 305 303 301 301 300 297 294 293 292 291 289 287 285 282 279 278
284 280 268 215 272 281 275 279 284 285 281 280 280 280 284 298 296 298 300 299 298 300 301 303 303 304 304 304 305 304 305 305 304 303 302 300 299 297 296 293 291 289 288 287 285 282 279 277 274
279 274 263 205 241 250 262 268 274 282 283 278 279 283 287 295 297 297 297 297 298 299 299 299 300 301 300 300 302 301 302 302 302 302 300 299 299 296 294 292 291 289 287 284 282 280 277 275 272
273 268 250 223 231 233 248 264 267 268 270 271 275 284 288 290 292 293 292 293 296 298 299 299 299 299 298 299 300 299 300 300 300 301 299 298 298 296 294 291 289 287 285 282 280 278 276 272 271
268 261 248 236 242 247 249 260 266 261 264 269 273 279 282 284 285 285 287 290 291 293 296 297 298 297 297 298 297 296 297 298 298 300 300 299 298 297 297 292 289 288 285 281 279 277 274 269 267
264 259 252 246 251 254 254 254 258 262 266 273 275 277 278 280 281 283 285 286 287 289 292 293 295 295 295 295 294 295 296 297 298 298 299 298 297 295 295 293 291 289 287 284 282 278 273 269 266
263 261 257 256 257 259 258 254 258 265 268 272 273 273 274 276 277 279 281 284 286 286 287 288 290 291 293 294 294 296 296 296 296 296 297 296 295 294 294 293 293 291 289 286 283 279 274 270 266
262 262 261 262 261 261 261 259 260 267 272 271 270 269 270 272 273 275 277 278 280 282 283 285 287 289 290 291 292 294 295 294 295 295 295 294 294 294 292 292 293 292 291 287 285 282 275 270 266
267 267 267 265 262 263 261 259 264 272 273 271 269 270 270 271 272 274 276 278 279 280 281 282 284 286 288 289 291 292 292 292 291 292 291 290 290 291 289 289 291 291 291 288 284 285 277 269 267
269 269 261 252 255 264 269 267 273 278 278 277 274 272 272 272 273 274 276 278 278 279 280 282 283 284 286 287 289 290 290 291 291 290 289 288 287 287 287 287 289 290 289 288 286 285 276 270 267
266 251 241 238 235 260 276 275 278 280 284 282 280 278 277 276 276 278 278 279 279 279 281 282 283 285 285 286 287 288 289 290 290 289 288 287 285 285 285 285 287 287 286 286 285 281 277 270 266
256 248 245 243 245 262 272 280 283 284 284 285 283 282 281 280 280 280 281 281 281 282 282 283 284 285 286 286 286 288 289 289 289 288 288 286 285 284 284 283 285 284 282 283 283 281 276 270 264
301 307 298 280 278 283 282 284 285 285 285 287 287 286 284 282 281 282 282 282 282 283 284 284 285 286 287 287 287 288 288 289 288 288 288 287 285 284 283 282 282 282 281 280 279 278 274 269 264
266 265 267 273 277 281 280 282 284 285 288 293 295 293 290 287 285 284 285 286 286 286 287 287 288 289 289 289 289 289 289 289 289 289 288 287 285 283 282 282 281 280 280 279 276 274 273 269 262
251 254 261 274 286 283 280 280 284 287 293 299 301 300 297 295 294 292 292 293 292 292 292 293 293 293 293 292 291 291 291 290 290 289 288 286 284 283 281 280 279 278 277 277 274 273 272 267 261
265 258 261 272 282 285 275 270 271 296 299 305 312 312 309 306 303 302 301 300 300 300 299 298 298 297 296 295 294 294 294 293 293 292 290 289 287 285 283 282 280 278 276 275 273 271 269 264 262
288 285 273 272 271 272 266 268 279 306 320 324 324 320 316 313 312 311 310 309 308 307 306 305 304 302 300 298 298 297 297 297 296 294 293 291 289 287 285 282 281 278 276 273 270 268 265 263 260
297 298 290 283 278 277 282 296 306 339 334 329 328 324 322 321 320 319 317 316 315 313 312 311 310 308 305 303 301 300 299 298 297 295 294 293 291 288 286 283 281 279 276 273 270 266 263 260 258
295 303 304 314 324 336 334 326 330 339 335 330 326 325 325 324 323 322 321 320 318 317 316 315 314 312 309 306 304 302 301 299 297 296 294 293 292 290 287 285 283 281 278 274 270 266 263 259 257
304 307 313 325 330 331 334 333 337 331 329 325 323 324 324 324 325 325 324 323 322 321 319 317 316 314 312 309 306 304 302 300 298 297 295 293 292 290 287 285 283 281 278 275 271 267 263 260 257
309 302 308 319 328 331 333 327 324 326 324 324 324 325 325 326 326 326 326 326 325 323 321 319 317 316 313 310 307 304 302 300 298 296 294 292 290 288 286 283 281 279 277 274 272 269 264 259 255
323 314 308 310 319 335 329 313 314 319 320 322 324 325 326 326 327 327 328 327 326 324 322 320 318 316 314 312 308 305 303 300 298 296 293 291 289 287 285 283 281 278 276 273 271 268 264 260 255
316 312 312 311 299 301 312 300 309 312 317 321 323 324 326 326 327 327 327 327 326 325 323 321 319 317 315 313 310 307 304 303 300 298 296 294 291 288 286 283 281 279 276 273 270 267 264 260 255
313 313 318 325 316 318 314 299 308 314 320 322 323 324 325 326 328 328 328 328 327 325 323 322 320 319 317 315 313 310 308 305 303 300 299 297 295 291 288 286 282 279 276 273 269 266 262 259 254
Height
5922 5923 5923 5924 5924 5922 5919 5922 5922 5921 5920 5920 5918 5917 5916 5917 5917 5918 5915 5914 5914 5913 5912 5912 5912 5911 5911 5910 5909 5909 5908 5908 5907 5907 5906 5905 5905 5904 5903 5903 5902 5902 5901 5900 5900 5899 5899 5898 5897
5923 5923 5924 5925 5924 5921 5922 5922 5922 5921 5920 5919 5917 5916 5915 5916 5915 5915 5913 5913 5913 5912 5912 5911 5910 5910 5910 5909 5909 5908 5908 5907 5907 5906 5905 5905 5904 5903 5903 5902 5901 5901 5900 5900 5899 5899 5898 5898 5897
5923 5923 5924 5925 5923 5924 5925 5923 5922 5920 5919 5918 5916 5915 5915 5914 5914 5913 5913 5913 5912 5911 5911 5910 5909 5909 5908 5908 5907 5907 5906 5906 5906 5905 5904 5904 5903 5902 5902 5901 5900 5900 5899 5899 5899 5898 5898 5897 5897
5922 5923 5924 5925 5924 5925 5925 5923 5921 5921 5918 5916 5915 5913 5913 5913 5913 5912 5912 5911 5911 5910 5910 5909 5908 5908 5907 5907 5906 5906 5905 5905 5904 5903 5903 5902 5902 5901 5900 5899 5899 5898 5898 5898 5897 5897 5896 5896 5896
5921 5922 5923 5923 5925 5925 5924 5921 5920 5920 5918 5916 5913 5912 5911 5911 5911 5910 5910 5910 5909 5909 5908 5908 5907 5907 5906 5905 5905 5904 5904 5903 5902 5901 5901 5900 5899 5898 5898 5897 5896 5896 5895 5895 5895 5895 5894 5894 5894
5920 5920 5921 5922 5926 5926 5923 5919 5919 5917 5916 5913 5911 5910 5909 5909 5908 5908 5908 5908 5907 5907 5906 5906 5905 5905 5904 5903 5903 5902 5901 5900 5900 5899 5898 5897 5896 5895 5894 5894 5893 5892 5892 5892 5892 5892 5892 5892 5891
5918 5918 5918 5920 5925 5926 5921 5917 5917 5915 5913 5912 5909 5907 5906 5906 5906 5906 5905 5905 5905 5905 5904 5904 5903 5903 5902 5901 5900 5899 5898 5897 5896 5895 5894 5893 5892 5891 5890 5889 5888 5888 5888 5887 5887 5888 5888 5888 5888
5914 5915 5915 5918 5923 5925 5918 5915 5914 5912 5910 5909 5908 5904 5902 5903 5904 5904 5903 5902 5902 5902 5901 5901 5900 5900 5899 5898 5897 5896 5895 5893 5892 5890 5889 5888 5887 5886 5884 5884 5883 5882 5882 5882 5882 5883 5883 5883 5884
5910 5912 5912 5915 5920 5920 5914 5911 5911 5909 5906 5904 5903 5901 5901 5902 5901 5901 5901 5900 5899 5899 5899 5898 5897 5897 5895 5894 5893 5892 5890 5889 5887 5886 5884 5883 5882 5880 5879 5878 5877 5876 5876 5876 5876 5877 5878 5878 5879
5906 5907 5908 5910 5911 5911 5908 5907 5907 5905 5901 5900 5899 5899 5899 5899 5899 5898 5897 5897 5896 5895 5895 5895 5894 5893 5891 5890 5889 5888 5886 5885 5883 5881 5879 5878 5876 5875 5873 5872 5871 5870 5869 5869 5870 5870 5871 5872 5873
5901 5902 5902 5902 5903 5903 5903 5903 5902 5901 5896 5895 5896 5897 5896 5896 5895 5895 5894 5892 5893 5892 5891 5890 5890 5888 5887 5886 5885 5883 5882 5880 5878 5876 5874 5872 5870 5869 5867 5865 5865 5863 5862 5862 5862 5863 5864 5865 5866
5895 5896 5896 5896 5896 5897 5898 5897 5896 5895 5894 5892 5893 5893 5893 5892 5891 5890 5890 5888 5889 5888 5887 5885 5885 5884 5882 5881 5879 5878 5876 5875 5872 5870 5868 5866 5864 5862 5860 5858 5857 5857 5856 5855 5854 5855 5855 5857 5858
5890 5891 5891 5891 5891 5891 5891 5892 5890 5889 5889 5889 5889 5889 5888 5888 5887 5886 5885 5884 5884 5883 5882 5880 5880 5879 5877 5875 5873 5872 5870 5868 5866 5864 5862 5859 5857 5855 5854 5852 5850 5848 5847 5847 5847 5847 5847 5849 5850
5885 5886 5887 5886 5887 5886 5887 5886 5886 5883 5885 5885 5884 5884 5883 5883 5882 5881 5880 5880 5879 5878 5877 5875 5874 5873 5872 5870 5867 5865 5863 5861 5859 5857 5854 5852 5850 5848 5847 5845 5843 5841 5839 5838 5837 5838 5838 5839 5841
5881 5882 5883 5883 5882 5882 5883 5882 5880 5879 5879 5879 5879 5879 5878 5878 5877 5876 5875 5874 5873 5872 5871 5869 5868 5867 5865 5863 5861 5858 5856 5853 5851 5849 5847 5845 5843 5841 5839 5838 5836 5834 5832 5830 5829 5829 5828 5830 5832
5878 5879 5879 5879 5878 5877 5880 5878 5876 5875 5874 5875 5874 5874 5873 5873 5872 5871 5870 5869 5868 5866 5865 5863 5861 5860 5858 5856 5853 5850 5847 5845 5843 5840 5838 5836 5834 5832 5831 5830 5829 5827 5825 5823 5821 5820 5820 5820 5823
5876 5875 5875 5873 5873 5874 5876 5874 5873 5871 5870 5870 5869 5869 5868 5868 5867 5866 5865 5863 5862 5860 5858 5856 5854 5852 5850 5847 5845 5842 5839 5836 5834 5831 5829 5827 5825 5823 5822 5822 5820 5819 5817 5815 5814 5813 5812 5811 5814
5872 5870 5869 5868 5868 5870 5871 5870 5869 5868 5866 5865 5865 5864 5863 5863 5862 5861 5859 5858 5856 5854 5852 5850 5847 5844 5841 5839 5836 5833 5830 5828 5825 5823 5820 5818 5817 5815 5813 5813 5812 5810 5809 5808 5806 5805 5804 5803 5805
5870 5870 5868 5866 5866 5868 5868 5867 5865 5864 5862 5861 5860 5860 5859 5858 5857 5856 5854 5852 5850 5848 5845 5842 5840 5837 5833 5831 5827 5825 5822 5819 5816 5813 5811 5809 5807 5805 5804 5802 5802 5800 5799 5799 5798 5797 5796 5796 5797
5871 5871 5869 5867 5867 5867 5865 5863 5860 5858 5858 5858 5857 5856 5855 5854 5852 5850 5848 5846 5844 5841 5838 5835 5832 5829 5825 5821 5818 5815 5813 5810 5806 5803 5801 5799 5797 5795 5794 5792 5791 5790 5790 5789 5789 5788 5788 5789 5789
5869 5868 5867 5866 5865 5864 5862 5859 5856 5855 5855 5854 5853 5852 5851 5849 5848 5845 5843 5840 5837 5834 5831 5827 5824 5820 5816 5812 5809 5805 5802 5799 5796 5793 5790 5788 5786 5784 5783 5782 5781 5780 5780 5779 5779 5779 5780 5781 5781
5866 5866 5865 5864 5862 5859 5858 5854 5851 5851 5851 5851 5850 5849 5847 5845 5842 5840 5837 5834 5830 5827 5823 5819 5816 5812 5807 5803 5799 5795 5791 5788 5785 5782 5779 5777 5775 5773 5771 5770 5769 5769 5769 5769 5769 5769 5770 5772 5773
5864 5863 5863 5861 5858 5855 5850 5847 5843 5845 5846 5846 5846 5845 5843 5840 5837 5834 5831 5827 5824 5819 5815 5811 5807 5802 5798 5793 5789 5785 5781 5777 5774 5770 5767 5765 5763 5761 5759 5758 5757 5757 5757 5757 5758 5759 5760 5761 5764
5864 5863 5862 5859 5855 5852 5847 5844 5842 5843 5844 5844 5843 5841 5839 5836 5833 5829 5825 5821 5817 5812 5807 5802 5798 5793 5788 5783 5779 5774 5770 5766 5763 5759 5756 5754 5751 5749 5747 5746 5745 5745 5745 5745 5747 5748 5750 5751 5754
5863 5863 5861 5856 5850 5848 5847 5843 5842 5844 5844 5842 5841 5838 5835 5832 5829 5824 5820 5815 5810 5805 5800 5794 5789 5784 5779 5774 5769 5764 5760 5756 5752 5749 5746 5743 5740 5737 5735 5734 5733 5733 5733 5733 5734 5736 5738 5740 5743
5862 5861 5860 5857 5854 5849 5846 5842 5843 5844 5844 5842 5839 5836 5833 5829 5824 5820 5814 5809 5804 5798 5792 5787 5781 5776 5770 5765 5760 5754 5750 5746 5742 5738 5734 5731 5729 5726 5724 5722 5721 5721 5721 5721 5722 5724 5726 5728 5731
5861 5860 5859 5857 5856 5853 5847 5845 5845 5844 5843 5840 5837 5834 5830 5825 5820 5815 5809 5803 5797 5791 5785 5779 5773 5767 5762 5756 5751 5745 5740 5736 5732 5728 5724 5721 5718 5715 5713 5710 5709 5708 5708 5708 5709 5710 5712 5715 5718
5860 5858 5857 5856 5855 5854 5852 5847 5845 5843 5841 5838 5835 5831 5827 5822 5816 5810 5804 5798 5792 5785 5778 5772 5765 5759 5753 5747 5741 5736 5730 5726 5721 5717 5713 5709 5706 5703 5700 5698 5696 5694 5694 5694 5695 5696 5698 5701 5704
5859 5857 5855 5854 5853 5853 5852 5848 5844 5841 5839 5835 5832 5827 5823 5817 5812 5806 5799 5793 5786 5778 5771 5764 5757 5750 5744 5737 5731 5725 5720 5714 5709 5705 5701 5697 5693 5690 5687 5684 5681 5679 5678 5678 5678 5680 5682 5686 5689
5858 5856 5854 5854 5852 5851 5851 5848 5842 5838 5835 5832 5828 5823 5818 5813 5807 5800 5794 5787 5779 5771 5764 5756 5748 5741 5734 5727 5721 5714 5709 5703 5698 5693 5689 5684 5680 5675 5672 5668 5665 5662 5660 5659 5660 5662 5664 5668 5672